Volk, WI

10:17 AM CST on January 20, 2018 (GMT -0600)
Volk

Weather History for KVOK - October, 2011

Change the Weather History Date:

Thursday, October 6, 2011

  Actual Average Record
Temperature  
Mean Temperature 59 °F -  
Max Temperature 78 °F 60 °F 85 °F (2007)
Min Temperature 40 °F 42 °F 27 °F (2014)
Degree Days  
Heating Degree Days 6    
Growing Degree Days 9 (Base 50)    
Moisture  
Dew Point 44 °F    
Average Humidity 95    
Maximum Humidity 100    
Minimum Humidity 39    
Precipitation  
Precipitation 0.00 in - - ()
Sea Level Pressure  
Sea Level Pressure 30.18 in    
Wind  
Wind Speed 4 mph (SE)    
Max Wind Speed 14 mph    
Max Gust Speed 18 mph    
Visibility 3 miles    
Events      
Averages and records for this station are not official NWS values.
T = Trace of Precipitation, MM = Missing Value Source: NWS Daily Summary

Daily Weather History Graph

Daily Weather History Graph

Search for Another Location

Airport or City:

Trip Planner

Search our weather history database for the weather conditions in past years. The results will help you decide how hot, cold, wet, or windy it might be!

Date:

Astronomy

Oct. 06, 2011 Rise Set
Actual Time 7:04 AM CDT 6:33 PM CDT
Civil Twilight 6:35 AM CDT 7:02 PM CDT
Nautical Twilight 6:02 AM CDT 7:35 PM CDT
Astronomical Twilight 5:28 AM CDT 8:09 PM CDT
Moon 3:55 PM CDT (10/6) 1:42 AM CDT (10/6)
Length of Visible Light 12h 26m
Length of Day
11h 29m
Waxing Gibbous, 75% of the Moon is Illuminated
Oct 6
Waxing Gibbous
Oct 11
Full
Oct 19
Last Quarter
Oct 26
New
Nov 2
First Quarter

Hourly Weather History & Observations

Time (CDT) Temp. Windchill Dew Point Humidity Pressure Visibility Wind Dir Wind Speed Gust Speed Precip Events Conditions
12:42 AM 44.6 °F 42.2 °F 44.6 °F 100% 30.17 in 2.5 mi SE 4.6 mph - N/A   Clear
12:43 AM 44.6 °F 42.2 °F 44.6 °F 100% 30.17 in 2.0 mi SE 4.6 mph - N/A   Clear
12:44 AM 44.6 °F 42.2 °F 44.6 °F 100% 30.17 in 1.8 mi SE 4.6 mph - N/A   Clear
12:48 AM 44.6 °F 42.2 °F 44.6 °F 100% 30.17 in 2.0 mi SE 4.6 mph - N/A   Clear
12:51 AM 44.6 °F 42.2 °F 44.6 °F 100% 30.17 in 2.5 mi SE 4.6 mph - N/A   Clear
12:55 AM 44.1 °F 40.8 °F 44.1 °F 100% 30.17 in 3.0 mi SE 5.8 mph - N/A   Clear
12:59 AM 44.6 °F 41.4 °F 44.6 °F 100% 30.17 in 2.5 mi SE 5.8 mph - N/A   Clear
1:00 AM 44.6 °F 41.4 °F 44.6 °F 100% 30.17 in 2.0 mi ESE 5.8 mph - N/A   Clear
1:01 AM 44.6 °F 41.4 °F 44.6 °F 100% 30.17 in 2.5 mi ESE 5.8 mph - N/A   Clear
1:09 AM 44.6 °F 41.4 °F 44.6 °F 100% 30.17 in 3.0 mi SE 5.8 mph - N/A   Clear
1:55 AM 43.0 °F 41.3 °F 43.0 °F 100% 30.18 in 7.0 mi ESE 3.5 mph - N/A   Clear
2:02 AM 42.8 °F 41.1 °F 42.8 °F 100% 30.18 in 2.5 mi ESE 3.5 mph - N/A   Clear
2:05 AM 42.8 °F 40.1 °F 42.8 °F 100% 30.18 in 2.0 mi SE 4.6 mph - N/A   Clear
2:07 AM 42.8 °F 40.1 °F 42.8 °F 100% 30.18 in 2.5 mi SE 4.6 mph - N/A   Clear
2:09 AM 42.8 °F 40.1 °F 42.8 °F 100% 30.18 in 3.0 mi SE 4.6 mph - N/A   Clear
2:19 AM 42.8 °F 41.1 °F 42.8 °F 100% 30.18 in 2.5 mi SE 3.5 mph - N/A   Clear
2:20 AM 42.8 °F 41.1 °F 42.8 °F 100% 30.18 in 2.0 mi SE 3.5 mph - N/A   Clear
2:21 AM 42.8 °F 41.1 °F 42.8 °F 100% 30.18 in 1.8 mi SE 3.5 mph - N/A   Clear
2:22 AM 42.8 °F - 42.8 °F 100% 30.18 in 1.5 mi Calm Calm - N/A   Clear
2:23 AM 42.8 °F - 42.8 °F 100% 30.18 in 1.2 mi Calm Calm - N/A   Clear
2:25 AM 42.8 °F - 42.8 °F 100% 30.18 in 1.0 mi Calm Calm - N/A   Clear
2:34 AM 42.8 °F - 42.8 °F 100% 30.18 in 1.2 mi Calm Calm - N/A   Clear
2:36 AM 42.8 °F 41.1 °F 42.8 °F 100% 30.18 in 1.5 mi ESE 3.5 mph - N/A   Clear
2:38 AM 42.8 °F - 42.8 °F 100% 30.18 in 1.8 mi Calm Calm - N/A   Clear
2:39 AM 42.8 °F 41.1 °F 42.8 °F 100% 30.18 in 2.0 mi ESE 3.5 mph - N/A   Clear
2:41 AM 42.8 °F 41.1 °F 42.8 °F 100% 30.18 in 2.5 mi ESE 3.5 mph - N/A   Clear
2:42 AM 42.8 °F 41.1 °F 42.8 °F 100% 30.18 in 3.0 mi ESE 3.5 mph - N/A   Clear
2:46 AM 42.8 °F 41.1 °F 42.8 °F 100% 30.18 in 2.5 mi ESE 3.5 mph - N/A   Clear
2:47 AM 42.8 °F 41.1 °F 42.8 °F 100% 30.18 in 2.0 mi ESE 3.5 mph - N/A   Clear
2:48 AM 42.8 °F 41.1 °F 42.8 °F 100% 30.18 in 1.5 mi ESE 3.5 mph - N/A   Clear
2:49 AM 42.8 °F 41.1 °F 42.8 °F 100% 30.18 in 1.2 mi ESE 3.5 mph - N/A   Clear
2:51 AM 42.8 °F 41.1 °F 42.8 °F 100% 30.18 in 1.0 mi ESE 3.5 mph - N/A   Clear
2:52 AM 42.8 °F 41.1 °F 42.8 °F 100% 30.18 in 0.8 mi ESE 3.5 mph - N/A   Clear
2:55 AM 41.5 °F 39.6 °F 41.5 °F 100% 30.18 in 0.8 mi SE 3.5 mph - N/A   Clear
3:02 AM 41.0 °F 39.0 °F 41.0 °F 100% 30.18 in 1.0 mi SE 3.5 mph - N/A   Clear
3:04 AM 41.0 °F 39.0 °F 41.0 °F 100% 30.18 in 1.2 mi SE 3.5 mph - N/A   Clear
3:05 AM 41.0 °F 39.0 °F 41.0 °F 100% 30.18 in 1.8 mi SE 3.5 mph - N/A   Clear
3:06 AM 41.0 °F 39.0 °F 41.0 °F 100% 30.18 in 2.0 mi SE 3.5 mph - N/A   Clear
3:07 AM 41.0 °F 39.0 °F 41.0 °F 100% 30.18 in 3.0 mi SE 3.5 mph - N/A   Clear
3:16 AM 41.0 °F 39.0 °F 41.0 °F 100% 30.18 in 2.0 mi ESE 3.5 mph - N/A   Clear
3:17 AM 41.0 °F 39.0 °F 41.0 °F 100% 30.18 in 1.8 mi ESE 3.5 mph - N/A   Clear
3:18 AM 41.0 °F 39.0 °F 41.0 °F 100% 30.18 in 1.2 mi ESE 3.5 mph - N/A   Clear
3:19 AM 41.0 °F 39.0 °F 41.0 °F 100% 30.18 in 1.0 mi SE 3.5 mph - N/A   Clear
3:21 AM 41.0 °F 39.0 °F 41.0 °F 100% 30.18 in 0.8 mi SE 3.5 mph - N/A   Clear
3:29 AM 41.0 °F 38.0 °F 41.0 °F 100% 30.18 in 1.0 mi SE 4.6 mph - N/A   Clear
3:31 AM 41.0 °F 38.0 °F 41.0 °F 100% 30.18 in 1.2 mi SE 4.6 mph - N/A   Clear
3:33 AM 41.0 °F 38.0 °F 41.0 °F 100% 30.18 in 1.5 mi SE 4.6 mph - N/A   Clear
3:34 AM 41.0 °F 38.0 °F 41.0 °F 100% 30.18 in 2.0 mi SE 4.6 mph - N/A   Clear
3:35 AM 41.0 °F 38.0 °F 41.0 °F 100% 30.18 in 2.5 mi SE 4.6 mph - N/A   Clear
3:37 AM 41.0 °F 38.0 °F 41.0 °F 100% 30.18 in 3.0 mi SE 4.6 mph - N/A   Clear
3:55 AM 40.6 °F - 40.6 °F 100% 30.18 in 5.0 mi Calm Calm - N/A   Clear
4:02 AM 41.0 °F 39.0 °F 41.0 °F 100% 30.18 in 2.5 mi ESE 3.5 mph - N/A   Clear
4:04 AM 41.0 °F 39.0 °F 41.0 °F 100% 30.18 in 2.0 mi ESE 3.5 mph - N/A   Clear
4:05 AM 41.0 °F 39.0 °F 41.0 °F 100% 30.18 in 1.8 mi ESE 3.5 mph - N/A   Clear
4:06 AM 41.0 °F 39.0 °F 41.0 °F 100% 30.18 in 1.5 mi ESE 3.5 mph - N/A   Clear
4:08 AM 41.0 °F 39.0 °F 41.0 °F 100% 30.18 in 1.2 mi ESE 3.5 mph - N/A   Clear
4:10 AM 41.0 °F 39.0 °F 41.0 °F 100% 30.18 in 1.0 mi East 3.5 mph - N/A   Clear
4:22 AM 41.0 °F 38.0 °F 41.0 °F 100% 30.18 in 0.8 mi East 4.6 mph - N/A   Clear
4:34 AM 41.0 °F 38.0 °F 41.0 °F 100% 30.18 in 1.0 mi East 4.6 mph - N/A   Clear
4:38 AM 41.0 °F 38.0 °F 41.0 °F 100% 30.18 in 1.2 mi East 4.6 mph - N/A   Clear
4:44 AM 41.0 °F 37.1 °F 41.0 °F 100% 30.18 in 1.0 mi East 5.8 mph - N/A   Clear
4:51 AM 41.0 °F 37.1 °F 41.0 °F 100% 30.19 in 0.8 mi East 5.8 mph - N/A   Clear
4:55 AM 40.3 °F 36.3 °F 40.3 °F 100% 30.19 in 0.8 mi East 5.8 mph - N/A   Clear
5:13 AM 41.0 °F 38.0 °F 41.0 °F 100% 30.19 in 1.0 mi East 4.6 mph - N/A   Clear
5:15 AM 41.0 °F 38.0 °F 41.0 °F 100% 30.19 in 1.2 mi East 4.6 mph - N/A   Clear
5:16 AM 41.0 °F 38.0 °F 41.0 °F 100% 30.19 in 1.5 mi East 4.6 mph - N/A   Clear
5:18 AM 41.0 °F 38.0 °F 41.0 °F 100% 30.19 in 1.8 mi East 4.6 mph - N/A   Clear
5:21 AM 41.0 °F 38.0 °F 41.0 °F 100% 30.19 in 2.0 mi East 4.6 mph - N/A   Clear
5:26 AM 41.0 °F 38.0 °F 41.0 °F 100% 30.19 in 1.8 mi East 4.6 mph - N/A   Clear
5:30 AM 41.0 °F 38.0 °F 41.0 °F 100% 30.19 in 1.5 mi East 4.6 mph - N/A   Clear
5:35 AM 41.0 °F 38.0 °F 41.0 °F 100% 30.19 in 1.8 mi East 4.6 mph - N/A   Clear
5:36 AM 41.0 °F 38.0 °F 41.0 °F 100% 30.19 in 2.0 mi East 4.6 mph - N/A   Clear
5:38 AM 42.8 °F 40.1 °F 42.8 °F 100% 30.19 in 2.5 mi East 4.6 mph - N/A   Clear
5:39 AM 42.8 °F 40.1 °F 42.8 °F 100% 30.19 in 3.0 mi East 4.6 mph - N/A   Clear
5:55 AM 41.5 °F 39.6 °F 41.5 °F 100% 30.20 in 4.0 mi East 3.5 mph - N/A   Clear
6:13 AM 42.8 °F - 42.8 °F 100% 30.20 in 2.5 mi Calm Calm - N/A   Clear
6:15 AM 42.8 °F - 42.8 °F 100% 30.20 in 2.0 mi Calm Calm - N/A   Clear
6:17 AM 42.8 °F - 42.8 °F 100% 30.20 in 1.8 mi Calm Calm - N/A   Clear
6:18 AM 42.8 °F - 42.8 °F 100% 30.20 in 1.5 mi Calm Calm - N/A   Clear
6:20 AM 42.8 °F - 42.8 °F 100% 30.20 in 1.2 mi Calm Calm - N/A   Clear
6:22 AM 41.0 °F - 41.0 °F 100% 30.20 in 1.0 mi Calm Calm - N/A   Clear
6:28 AM 41.0 °F - 41.0 °F 100% 30.20 in 0.8 mi Calm Calm - N/A   Clear
6:29 AM 41.0 °F - 41.0 °F 100% 30.20 in 1.0 mi Calm Calm - N/A   Clear
6:32 AM 41.0 °F - 41.0 °F 100% 30.20 in 1.2 mi Calm Calm - N/A   Clear
6:34 AM 41.0 °F 39.0 °F 41.0 °F 100% 30.20 in 1.5 mi East 3.5 mph - N/A   Clear
6:36 AM 41.0 °F 39.0 °F 41.0 °F 100% 30.20 in 1.8 mi East 3.5 mph - N/A   Clear
6:37 AM 41.0 °F 39.0 °F 41.0 °F 100% 30.20 in 2.5 mi East 3.5 mph - N/A   Clear
6:38 AM 41.0 °F 39.0 °F 41.0 °F 100% 30.20 in 3.0 mi East 3.5 mph - N/A   Clear
6:53 AM 41.0 °F 39.0 °F 41.0 °F 100% 30.21 in 2.5 mi East 3.5 mph - N/A   Clear
6:55 AM 41.0 °F 39.0 °F 41.0 °F 100% 30.21 in 7.0 mi East 3.5 mph - N/A   Clear
7:55 AM 44.6 °F - 44.6 °F 100% 30.22 in 10.0 mi Calm Calm - N/A   Clear
8:55 AM 51.8 °F - 51.8 °F 100% 30.23 in 10.0 mi Calm Calm - N/A   Clear
9:55 AM 60.8 °F - 55.4 °F 82% 30.22 in 10.0 mi SW 3.5 mph - N/A   Clear
10:55 AM 68.0 °F - 55.4 °F 64% 30.21 in 10.0 mi South 4.6 mph - N/A   Clear
11:55 AM 73.4 °F - 53.6 °F 50% 30.19 in 10.0 mi Variable 4.6 mph - N/A   Clear
12:55 PM 76.8 °F - 51.4 °F 41% 30.19 in 10.0 mi WSW 9.2 mph - N/A   Clear
1:55 PM 78.8 °F - 51.8 °F 39% 30.17 in 10.0 mi SW 9.2 mph - N/A   Clear
2:55 PM 78.8 °F - 53.6 °F 42% 30.16 in 10.0 mi West 12.7 mph - N/A   Clear
3:55 PM 77.7 °F - 53.1 °F 42% 30.16 in 10.0 mi SSW 10.4 mph 17.3 mph N/A   Clear
4:55 PM 77.0 °F - 52.9 °F 43% 30.14 in 10.0 mi SSW 13.8 mph 18.4 mph N/A   Clear
5:55 PM 73.0 °F - 52.7 °F 49% 30.14 in 10.0 mi SSW 8.1 mph - N/A   Clear
6:55 PM 62.6 °F - 53.2 °F 71% 30.14 in 10.0 mi South 8.1 mph - N/A   Clear
7:55 PM 56.8 °F - 52.5 °F 85% 30.15 in 10.0 mi South 12.7 mph - N/A   Clear
8:55 PM 59.4 °F - 52.9 °F 79% 30.15 in 10.0 mi SW 5.8 mph - N/A   Clear
9:55 PM 55.4 °F - 52.7 °F 91% 30.15 in 10.0 mi SW 5.8 mph - N/A   Clear
10:55 PM 52.7 °F - 52.2 °F 98% 30.15 in 10.0 mi South 4.6 mph - N/A   Clear
11:55 PM 54.5 °F - 53.4 °F 96% 30.14 in 10.0 mi SSW 4.6 mph - N/A   Clear